When you browse on this site, cookies collect data to enhance your experience and personalize the content and advertising you see.
Visit our Privacy Policy to learn more. By continuing to use the site, you agree to this use of cookies and data.
  • In Switzerland
  • List of Countries
  • For 7 days
  • Water Temperature
  • Satellite Maps
  • Weather Map
  • Weather Widgets
  • user-avatar
    Login

    Hourly Weather Krajanka

    Today, 26 April, Friday

    Time Temperature Precipitation Wind Pressure Humidity
    00:00 +16°C° 0 mm 3 mps 743 mmHg 81%
    01:00 +16°C° 0 mm 3 mps 743 mmHg 80%
    02:00 +14°C° 0 mm 3 mps 743 mmHg 80%
    03:00 +14°C° 0 mm 3 mps 742 mmHg 81%
    04:00 +13°C° 0 mm 3 mps 742 mmHg 81%
    05:00 +16°C° 0 mm 3 mps 742 mmHg 77%
    06:00 +17°C° 0 mm 4 mps 742 mmHg 73%
    07:00 +18°C° 0 mm 4 mps 742 mmHg 69%
    08:00 +20°C° 0 mm 4 mps 741 mmHg 63%
    09:00 +21°C° 0 mm 4 mps 741 mmHg 56%
    10:00 +23°C° 0 mm 4 mps 741 mmHg 50%
    11:00 +25°C° 0 mm 4 mps 741 mmHg 47%
    12:00 +26°C° 0 mm 4 mps 741 mmHg 45%
    13:00 +27°C° 0 mm 4 mps 741 mmHg 42%
    14:00 +27°C° 0 mm 4 mps 740 mmHg 43%
    15:00 +27°C° 0 mm 4 mps 740 mmHg 44%
    16:00 +27°C° 0 mm 3 mps 740 mmHg 45%
    17:00 +25°C° 0 mm 3 mps 739 mmHg 50%
    18:00 +23°C° 0 mm 2 mps 739 mmHg 56%
    19:00 +21°C° 0 mm 2 mps 739 mmHg 61%
    20:00 +20°C° 0 mm 2 mps 739 mmHg 64%
    21:00 +19°C° 0 mm 3 mps 739 mmHg 66%
    22:00 +18°C° 0 mm 3 mps 739 mmHg 69%
    23:00 +17°C° 0 mm 3 mps 739 mmHg 76%

    Tomorrow, 27 April, Saturday

    Time Temperature Precipitation Wind Pressure Humidity
    00:00 +17°C° 0 mm 4 mps 739 mmHg 83%
    01:00 +15°C° 0 mm 4 mps 740 mmHg 89%
    02:00 +15°C° 0.1 mm 4 mps 740 mmHg 90%
    03:00 +14°C° 0.1 mm 5 mps 740 mmHg 91%
    04:00 +14°C° 0.1 mm 5 mps 740 mmHg 92%
    05:00 +14°C° 0.1 mm 5 mps 740 mmHg 91%
    06:00 +14°C° 0.1 mm 5 mps 741 mmHg 91%
    07:00 +13°C° 0.1 mm 5 mps 741 mmHg 90%
    08:00 +13°C° 0.1 mm 6 mps 742 mmHg 89%
    09:00 +11°C° 0.1 mm 6 mps 742 mmHg 87%
    10:00 +10°C° 0.1 mm 6 mps 742 mmHg 85%
    11:00 +11°C° 0 mm 6 mps 743 mmHg 80%
    12:00 +13°C° 0 mm 6 mps 743 mmHg 76%
    13:00 +13°C° 0 mm 5 mps 743 mmHg 72%
    14:00 +14°C° 0 mm 5 mps 743 mmHg 70%
    15:00 +14°C° 0 mm 4 mps 743 mmHg 68%
    16:00 +14°C° 0 mm 3 mps 743 mmHg 65%
    17:00 +13°C° 0 mm 3 mps 743 mmHg 68%
    18:00 +13°C° 0 mm 3 mps 743 mmHg 70%
    19:00 +13°C° 0 mm 2 mps 743 mmHg 72%
    20:00 +12°C° 0 mm 2 mps 744 mmHg 73%
    21:00 +12°C° 0 mm 1 mps 744 mmHg 74%
    22:00 +11°C° 0 mm 1 mps 744 mmHg 75%
    23:00 +11°C° 0 mm 1 mps 744 mmHg 75%

    Day after tomorrow, 28 April, Sunday

    Time Temperature Precipitation Wind Pressure Humidity
    00:00 +10°C° 0 mm 1 mps 744 mmHg 75%
    01:00 +10°C° 0 mm 1 mps 744 mmHg 76%
    02:00 +9°C° 0 mm 2 mps 744 mmHg 80%
    03:00 +9°C° 0 mm 3 mps 745 mmHg 84%
    04:00 +8°C° 0 mm 4 mps 745 mmHg 88%
    05:00 +8°C° 0.1 mm 5 mps 745 mmHg 87%
    06:00 +8°C° 0.1 mm 5 mps 745 mmHg 85%
    07:00 +9°C° 0.1 mm 6 mps 746 mmHg 84%
    08:00 +10°C° 0 mm 6 mps 746 mmHg 79%
    09:00 +10°C° 0 mm 6 mps 746 mmHg 73%
    10:00 +11°C° 0 mm 6 mps 746 mmHg 67%
    11:00 +13°C° 0 mm 6 mps 746 mmHg 65%
    12:00 +13°C° 0 mm 5 mps 746 mmHg 63%
    13:00 +14°C° 0 mm 5 mps 747 mmHg 61%
    14:00 +14°C° 0 mm 5 mps 746 mmHg 61%
    15:00 +13°C° 0 mm 5 mps 746 mmHg 61%
    16:00 +13°C° 0 mm 5 mps 746 mmHg 62%
    17:00 +12°C° 0 mm 4 mps 746 mmHg 64%
    18:00 +12°C° 0 mm 4 mps 747 mmHg 66%
    19:00 +11°C° 0 mm 3 mps 747 mmHg 68%
    20:00 +11°C° 0 mm 3 mps 747 mmHg 67%
    21:00 +11°C° 0 mm 4 mps 747 mmHg 67%
    22:00 +10°C° 0 mm 4 mps 747 mmHg 66%
    23:00 +10°C° 0.1 mm 4 mps 747 mmHg 68%

    29 April, Monday

    Time Temperature Precipitation Wind Pressure Humidity
    00:00 +10°C° 0.1 mm 4 mps 747 mmHg 71%
    01:00 +8°C° 0.1 mm 4 mps 747 mmHg 73%
    02:00 +8°C° 0.1 mm 4 mps 747 mmHg 76%
    03:00 +8°C° 0.1 mm 4 mps 746 mmHg 79%
    04:00 +7°C° 0.1 mm 4 mps 746 mmHg 82%
    05:00 +7°C° 0.1 mm 4 mps 746 mmHg 81%
    06:00 +7°C° 0.1 mm 5 mps 746 mmHg 80%
    07:00 +7°C° 0.1 mm 5 mps 746 mmHg 78%
    08:00 +8°C° 0.2 mm 5 mps 746 mmHg 81%
    09:00 +8°C° 0.2 mm 6 mps 746 mmHg 83%
    10:00 +8°C° 0.2 mm 6 mps 746 mmHg 85%
    11:00 +8°C° 1.9 mm 6 mps 745 mmHg 88%
    12:00 +8°C° 1.9 mm 6 mps 745 mmHg 90%
    13:00 +8°C° 1.9 mm 6 mps 745 mmHg 93%
    14:00 +8°C° 1.7 mm 6 mps 745 mmHg 93%
    15:00 +8°C° 1.7 mm 6 mps 744 mmHg 93%
    16:00 +8°C° 1.7 mm 5 mps 744 mmHg 94%
    17:00 +8°C° 0.4 mm 4 mps 744 mmHg 95%
    18:00 +8°C° 0.4 mm 4 mps 744 mmHg 96%
    19:00 +10°C° 0.4 mm 3 mps 744 mmHg 97%
    20:00 +10°C° 0.1 mm 3 mps 744 mmHg 97%
    21:00 +10°C° 0.1 mm 2 mps 744 mmHg 97%
    22:00 +10°C° 0.1 mm 2 mps 744 mmHg 97%
    23:00 +10°C° 0 mm 2 mps 744 mmHg 97%

    30 April, Tuesday

    Time Temperature Precipitation Wind Pressure Humidity
    00:00 +9°C° 0 mm 2 mps 744 mmHg 96%
    01:00 +9°C° 0 mm 3 mps 744 mmHg 96%
    02:00 +8°C° 0 mm 3 mps 744 mmHg 96%
    03:00 +8°C° 0 mm 3 mps 744 mmHg 96%
    04:00 +7°C° 0 mm 3 mps 744 mmHg 96%
    05:00 +8°C° 0.1 mm 3 mps 744 mmHg 93%
    06:00 +9°C° 0.1 mm 3 mps 744 mmHg 90%
    07:00 +10°C° 0.1 mm 4 mps 745 mmHg 87%
    08:00 +12°C° 0.1 mm 4 mps 745 mmHg 80%
    09:00 +13°C° 0.1 mm 4 mps 745 mmHg 72%
    10:00 +14°C° 0.1 mm 4 mps 745 mmHg 64%
    11:00 +15°C° 0.1 mm 4 mps 745 mmHg 62%
    12:00 +15°C° 0.1 mm 4 mps 744 mmHg 59%
    13:00 +15°C° 0.1 mm 4 mps 744 mmHg 57%
    14:00 +15°C° 0 mm 4 mps 744 mmHg 57%
    15:00 +15°C° 0 mm 4 mps 744 mmHg 57%
    16:00 +15°C° 0 mm 4 mps 744 mmHg 57%
    17:00 +13°C° 0 mm 3 mps 744 mmHg 61%
    18:00 +12°C° 0 mm 3 mps 744 mmHg 64%
    19:00 +12°C° 0 mm 2 mps 744 mmHg 68%
    20:00 +12°C° 0 mm 2 mps 744 mmHg 67%
    21:00 +12°C° 0 mm 2 mps 744 mmHg 65%
    22:00 +12°C° 0 mm 2 mps 745 mmHg 64%
    23:00 +10°C° 0 mm 2 mps 744 mmHg 66%

    1 May, Wednesday

    Time Temperature Precipitation Wind Pressure Humidity
    00:00 +10°C° 0 mm 3 mps 744 mmHg 68%
    01:00 +9°C° 0 mm 3 mps 744 mmHg 70%
    02:00 +9°C° 0 mm 3 mps 744 mmHg 70%
    03:00 +9°C° 0 mm 3 mps 744 mmHg 70%
    04:00 +8°C° 0 mm 2 mps 744 mmHg 71%
    05:00 +9°C° 0 mm 2 mps 744 mmHg 70%
    06:00 +9°C° 0 mm 2 mps 744 mmHg 69%
    07:00 +10°C° 0 mm 2 mps 744 mmHg 69%
    08:00 +12°C° 0.1 mm 2 mps 744 mmHg 62%
    09:00 +13°C° 0.1 mm 2 mps 744 mmHg 55%
    10:00 +14°C° 0.1 mm 3 mps 744 mmHg 48%
    11:00 +15°C° 0 mm 2 mps 744 mmHg 48%
    12:00 +15°C° 0 mm 2 mps 743 mmHg 48%
    13:00 +15°C° 0 mm 2 mps 743 mmHg 48%
    14:00 +15°C° 0 mm 2 mps 743 mmHg 48%
    15:00 +15°C° 0 mm 2 mps 743 mmHg 48%
    16:00 +15°C° 0 mm 1 mps 742 mmHg 48%
    17:00 +14°C° 0 mm 1 mps 742 mmHg 53%
    18:00 +13°C° 0 mm 1 mps 742 mmHg 58%
    19:00 +12°C° 0 mm 1 mps 742 mmHg 64%
    20:00 +11°C° 0 mm 1 mps 742 mmHg 63%
    21:00 +11°C° 0 mm 1 mps 742 mmHg 63%
    22:00 +11°C° 0 mm 1 mps 742 mmHg 62%
    23:00 +9°C° 0 mm 2 mps 742 mmHg 65%
    Show more